Location: Wangen+im+Allg�u
(47.7098°N, 9.8383°E)
Time: 19:05:38
(UTC+02:00)

ISS - Pass Details

Date: 27 May 2018
Orbit: 402 x 408 km, 51.6° (Epoch: 19 September)

Event Time Altitude Azimuth Distance (km) Brightness Sun altitude
Rises 23:29:59 0° 287° (WNW) 2,323 0.7 -16.8°
Reaches altitude 10° 23:32:08 10° 294° (WNW) 1,461 -0.3 -16.9°
Maximum altitude 23:35:16 42° 8° (N) 585 -2.6 -17.1°
Enters shadow 23:38:01 13° 79° (E) 1,308 -1.4 -17.3°
